DW4559 Weather Reports


time (UTC)temp
C
wind
direction
speed
KPH
gust
KPH
rain 1hr
cm
rain 24hr
cm
rain mn
cm
humidity
%
barometer
mb
20260507150905 14 111 3.2 8.0 0.00 0.00 0.00 64 1005.2
20260507150404 14 316 3.2 9.7 0.00 0.00 0.00 64 1005.1
20260507145904 13 31 1.6 9.7 0.00 0.00 0.00 64 1005.0
20260507145404 13 282 3.2 8.0 0.00 0.00 0.00 68 1005.2
20260507144904 13 344 3.2 9.7 0.00 0.00 0.00 71 1005.1
20260507144404 13 320 3.2 11.3 0.00 0.00 0.00 71 1005.1
20260507143904 13 332 3.2 4.8 0.00 0.00 0.00 73 1005.1
20260507143404 12 340 1.6 4.8 0.00 0.00 0.00 74 1005.1
20260507142904 12 330 3.2 4.8 0.00 0.00 0.00 74 1005.0
20260507142404 12 327 4.8 9.7 0.00 0.00 0.00 75 1005.1
20260507141904 12 326 3.2 9.7 0.00 0.00 0.00 75 1005.0
20260507141404 12 336 1.6 8.0 0.00 0.00 0.00 77 1005.1
20260507140904 12 320 1.6 8.0 0.00 0.00 0.00 77 1005.2
20260507135404 12 330 3.2 9.7 0.00 0.00 0.00 78 1005.0
20260507134904 12 334 3.2 8.0 0.00 0.00 0.00 79 1005.0
20260507134404 12 325 3.2 4.8 0.00 0.00 0.00 79 1005.0
20260507133904 11 146 1.6 4.8 0.00 0.00 0.00 82 1005.1
20260507133404 11 331 1.6 4.8 0.00 0.00 0.00 83 1005.1
20260507132904 11 341 0.0 4.8 0.00 0.00 0.00 85 1005.3
20260507131404 11 329 1.6 3.2 0.00 0.00 0.00 87 1005.2
20260507130904 10 340 1.6 3.2 0.00 0.00 0.00 88 1005.3
20260507130404 10 327 1.6 4.8 0.00 0.00 0.00 87 1005.4
20260507125904 10 14 0.0 4.8 0.00 0.00 0.00 89 1005.4
20260507125404 10 306 0.0 3.2 0.00 0.00 0.00 89 1005.3
20260507124904 10 327 0.0 1.6 0.00 0.00 0.00 90 1005.2
20260507123904 10 308 1.6 3.2 0.00 0.00 0.00 91 1005.0
20260507123404 10 0 3.2 9.7 0.00 0.00 0.00 91 1005.1
20260507122904 10 350 1.6 3.2 0.00 0.00 0.00 92 1005.1
20260507122404 10 322 1.6 3.2 0.00 0.00 0.00 92 1005.1
20260507121904 10 23 1.6 1.6 0.00 0.00 0.00 92 1005.1
20260507121404 10 332 1.6 3.2 0.00 0.00 0.00 93 1005.0
20260507120404 10 332 1.6 3.2 0.00 0.00 0.00 94 1004.7
20260507115903 10 11 0.0 1.6 0.00 0.00 0.00 94 1004.8
20260507115404 10 333 1.6 3.2 0.00 0.00 0.00 95 1004.7
20260507114904 10 20 1.6 3.2 0.00 0.00 0.00 96 1004.6
20260507114404 10 12 0.0 3.2 0.00 0.00 0.00 96 1004.6
20260507113404 10 332 0.0 1.6 0.00 0.00 0.00 97 1004.5
20260507112904 10 322 0.0 1.6 0.00 0.00 0.00 98 1004.5
20260507112404 10 318 1.6 3.2 0.00 0.00 0.00 98 1004.3
20260507111904 10 15 1.6 3.2 0.00 0.00 0.00 98 1004.3
20260507111404 10 38 0.0 1.6 0.00 0.00 0.00 99 1004.1
20260507110904 10 352 0.0 1.6 0.00 0.00 0.00 99 1004.4
20260507110404 10 1 1.6 1.6 0.00 0.00 0.00 99 1004.4
20260507105404 9 100 0.0 1.6 0.00 0.00 0.00 99 1004.3
20260507104904 9 319 1.6 3.2 0.00 0.00 0.00 99 1004.2
20260507104405 9 337 0.0 0.0 0.00 0.00 0.00 99 1004.1
20260507103904 9 337 0.0 0.0 0.00 0.00 0.00 99 1004.1
20260507103404 9 337 0.0 0.0 0.00 0.00 0.00 99 1004.1
20260507102904 9 337 0.0 1.6 0.00 0.00 0.00 99 1003.9
20260507102404 9 84 0.0 1.6 0.00 0.00 0.00 99 1003.8
20260507101904 9 314 0.0 1.6 0.00 0.00 0.00 99 1003.6
20260507100904 9 337 0.0 1.6 0.00 0.00 0.00 99 1003.5
20260507100404 9 344 1.6 1.6 0.00 0.00 0.00 99 1003.5
20260507095904 9 330 0.0 0.0 0.00 0.00 0.00 99 1003.6
20260507095404 9 330 0.0 0.0 0.00 0.00 0.00 99 1003.5
20260507094904 9 330 0.0 1.6 0.00 0.00 0.00 99 1003.7
20260507093904 9 318 0.0 1.6 0.00 0.00 0.00 99 1003.6
20260507093404 9 304 0.0 1.6 0.00 0.00 0.00 99 1003.7
20260507091904 9 324 1.6 3.2 0.00 0.00 0.00 98 1004.0
20260507091404 9 354 1.6 1.6 0.00 0.00 0.00 99 1003.6
20260507090904 9 325 1.6 3.2 0.00 0.00 0.00 99 1003.3
20260507090404 9 353 0.0 0.0 0.00 0.00 0.00 98 1003.1
20260507085904 9 339 0.0 1.6 0.00 0.00 0.00 98 1003.0
20260507085404 9 352 1.6 1.6 0.00 0.00 0.00 98 1003.1
20260507084904 9 349 1.6 4.8 0.00 0.00 0.00 98 1003.6
20260507083904 9 348 3.2 8.0 0.00 0.00 0.00 98 1003.0
20260507083404 9 351 1.6 3.2 0.00 0.00 0.00 98 1003.2
20260507082904 9 337 1.6 3.2 0.00 0.00 0.00 98 1003.4
20260507082404 9 333 1.6 3.2 0.00 0.00 0.00 98 1003.1
20260507081904 9 153 1.6 3.2 0.00 0.00 0.00 98 1003.2
20260507081404 9 325 1.6 3.2 0.00 0.00 0.00 97 1003.3
20260507080904 9 293 1.6 3.2 0.00 0.00 0.00 97 1003.4
20260507080404 9 329 3.2 3.2 0.00 0.00 0.00 97 1003.6
20260507075904 9 351 3.2 4.8 0.00 0.00 0.00 97 1003.3
20260507075403 9 299 3.2 8.0 0.00 0.00 0.00 97 1003.2
20260507074904 9 342 1.6 4.8 0.00 0.00 0.00 97 1003.3
20260507074404 9 346 1.6 4.8 0.00 0.00 0.00 97 1003.1
20260507073404 10 17 3.2 8.0 0.00 0.00 0.00 97 1003.0
20260507072905 10 321 1.6 3.2 0.00 0.00 0.00 97 1002.9
20260507071904 10 351 0.0 3.2 0.00 0.00 0.00 97 1003.0
20260507071404 10 24 1.6 3.2 0.00 0.00 0.00 97 1003.3
20260507070904 10 314 1.6 3.2 0.00 0.00 0.00 97 1003.4
20260507070404 10 358 3.2 4.8 0.00 0.00 0.00 96 1002.5
20260507065904 10 351 1.6 3.2 0.00 0.00 0.00 96 1002.5
20260507065403 10 340 1.6 3.2 0.00 0.00 0.00 96 1003.1
20260507064904 10 348 3.2 4.8 0.00 0.00 0.00 96 1003.0
20260507064404 10 8 1.6 3.2 0.00 0.00 0.00 95 1002.2
20260507063904 11 12 1.6 4.8 0.00 0.00 0.00 94 1002.9
20260507063403 11 0 3.2 3.2 0.00 0.00 0.00 93 1003.0
20260507062904 11 49 3.2 3.2 0.00 0.00 0.00 92 1002.9
20260507062403 11 3 1.6 4.8 0.00 0.00 0.00 92 1002.9
20260507061903 11 342 3.2 4.8 0.00 0.00 0.00 90 1002.9
20260507061404 11 336 1.6 3.2 0.00 0.00 0.00 91 1002.6
20260507060904 11 81 1.6 3.2 0.00 0.00 0.00 92 1002.1
20260507055904 12 23 1.6 4.8 0.00 0.00 0.00 93 1002.1
20260507055404 12 329 1.6 4.8 0.00 0.00 0.00 94 1002.2
20260507054904 12 330 1.6 3.2 0.00 0.00 0.00 95 1002.3
20260507054403 12 335 0.0 1.6 0.00 0.00 0.00 95 1002.0
20260507053904 13 329 1.6 3.2 0.00 0.00 0.00 95 1002.2
20260507053404 13 327 0.0 4.8 0.00 0.00 0.00 95 1002.2
20260507052904 13 347 3.2 4.8 0.00 0.00 0.00 96 1002.4
20260507052404 13 330 3.2 4.8 0.00 0.00 0.00 95 1002.3
20260507051904 13 358 1.6 4.8 0.00 0.00 0.00 96 1002.1
20260507051404 13 316 1.6 3.2 0.00 0.00 0.00 96 1002.0
20260507050903 13 358 1.6 3.2 0.00 0.00 0.00 96 1002.3
20260507050404 13 304 1.6 3.2 0.00 0.00 0.00 96 1002.4
20260507045904 14 343 0.0 3.2 0.00 0.00 0.00 96 1002.4
20260507045404 14 310 1.6 4.8 0.00 0.00 0.00 96 1002.2
20260507044903 14 340 1.6 1.6 0.00 0.00 0.00 97 1002.3
20260507044404 14 307 1.6 3.2 0.00 0.00 0.00 98 1002.4
20260507043904 14 2 1.6 4.8 0.00 0.00 0.00 99 1002.6
20260507043404 14 338 0.0 3.2 0.00 0.00 0.00 99 1002.8
20260507042904 14 358 0.0 1.6 0.00 0.00 0.00 100 1002.7
20260507041904 13 13 0.0 1.6 0.00 0.00 0.00 100 1002.6
20260507041404 13 351 0.0 1.6 0.00 0.00 0.00 100 1002.5
20260507040904 13 6 0.0 3.2 0.00 0.00 0.00 99 1002.5
20260507040404 13 329 0.0 1.6 0.00 0.00 0.00 99 1002.5
20260507035904 13 335 0.0 1.6 0.00 0.00 0.00 99 1002.5
20260507034904 13 323 0.0 1.6 0.00 0.00 0.00 99 1002.5
20260507033903 13 309 0.0 3.2 0.00 0.00 0.00 98 1002.5
20260507033404 13 309 0.0 3.2 0.00 0.00 0.00 98 1002.5
20260507031904 13 277 0.0 0.0 0.00 0.00 0.00 98 1002.2
20260507031403 14 277 0.0 0.0 0.00 0.00 0.00 97 1002.5
20260507030904 14 277 0.0 1.6 0.00 0.00 0.00 97 1002.7
20260507030404 14 319 0.0 0.0 0.00 0.00 0.00 96 1002.6
20260507025904 14 319 1.6 4.8 0.00 0.00 0.00 95 1002.7
20260507025404 13 331 1.6 4.8 0.00 0.00 0.00 94 1002.8
20260507024904 13 328 1.6 3.2 0.00 0.00 0.00 94 1002.7
20260507024403 13 321 0.0 1.6 0.00 0.00 0.00 94 1002.5
20260507023904 13 337 1.6 3.2 0.00 0.00 0.00 94 1002.7
20260507023403 13 335 0.0 1.6 0.00 0.00 0.00 94 1002.6
20260507022904 13 344 0.0 1.6 0.00 0.00 0.00 94 1002.5
20260507022404 13 342 0.0 0.0 0.00 0.00 0.00 94 1002.4
20260507021404 13 346 0.0 1.6 0.00 0.00 0.00 94 1002.8
20260507020904 13 319 0.0 3.2 0.00 0.00 0.00 94 1002.8
20260507020404 13 336 0.0 1.6 0.00 0.00 0.00 94 1002.8
20260507015403 13 344 0.0 1.6 0.00 0.00 0.00 95 1002.7
20260507014905 13 21 0.0 1.6 0.00 0.00 0.00 95 1002.7
20260507014404 13 16 0.0 1.6 0.00 0.00 0.00 95 1002.7
20260507013903 13 339 0.0 1.6 0.00 0.00 0.00 95 1002.7
20260507013404 13 328 0.0 0.0 0.00 0.00 0.00 95 1002.7
20260507012903 13 327 0.0 1.6 0.00 0.00 0.00 95 1002.7
20260507012403 13 344 0.0 1.6 0.00 0.00 0.00 95 1002.7
20260507011904 13 353 0.0 1.6 0.00 0.00 0.00 95 1002.7
20260507011403 13 335 0.0 0.0 0.00 0.00 0.00 94 1002.7
20260507005903 13 331 0.0 3.2 0.00 0.00 0.00 94 1002.8
20260507005404 13 347 0.0 1.6 0.00 0.00 0.00 93 1002.8
20260507004405 13 302 0.0 1.6 0.00 0.00 0.00 93 1002.9
20260507003904 13 319 1.6 3.2 0.00 0.00 0.00 93 1002.9
20260507003405 13 329 0.0 1.6 0.00 0.00 0.00 93 1002.9
20260507002905 13 341 0.0 0.0 0.00 0.00 0.00 93 1002.8
20260507001905 13 155 1.6 3.2 0.00 0.00 0.00 93 1002.7
20260507001405 13 334 0.0 1.6 0.00 0.00 0.00 93 1002.9
20260507000905 14 326 1.6 1.6 0.00 0.00 0.00 93 1002.8
20260507000405 14 342 1.6 1.6 0.00 0.00 0.00 93 1002.7
20260506235404 14 344 0.0 3.2 0.00 0.00 0.00 92 1002.7
20260506234905 14 339 1.6 3.2 0.00 0.00 0.00 92 1002.8
20260506234405 14 317 0.0 1.6 0.00 0.00 0.00 92 1002.6
20260506233905 14 326 0.0 1.6 0.00 0.00 0.00 92 1002.5
20260506233404 14 351 0.0 3.2 0.00 0.00 0.00 92 1002.5
20260506232905 14 6 1.6 1.6 0.00 0.00 0.00 92 1002.4
20260506232405 14 27 0.0 3.2 0.00 0.00 0.00 92 1002.4
20260506231405 14 322 1.6 3.2 0.00 0.00 0.00 92 1002.4
20260506225905 14 294 1.6 3.2 0.00 0.00 0.00 92 1002.4
20260506225405 14 26 1.6 3.2 0.00 0.00 0.00 92 1002.4
20260506224905 14 332 0.0 3.2 0.00 0.00 0.00 92 1002.4
20260506224404 14 328 0.0 3.2 0.00 0.00 0.00 92 1002.4
20260506223904 14 335 0.0 4.8 0.00 0.00 0.00 92 1002.4
20260506223405 14 45 1.6 4.8 0.00 0.00 0.00 92 1002.4
20260506222905 14 331 1.6 4.8 0.00 0.00 0.00 92 1002.3
20260506222405 14 314 1.6 8.0 0.00 0.00 0.00 91 1002.3
20260506221405 14 7 1.6 4.8 0.00 0.00 0.00 91 1002.2
20260506220905 15 345 1.6 4.8 0.00 0.00 0.00 92 1002.1
20260506220404 15 7 1.6 8.0 0.00 0.00 0.00 92 1002.1
20260506215905 15 337 1.6 8.0 0.00 0.00 0.00 92 1002.0
20260506215405 15 334 1.6 3.2 0.00 0.00 0.00 91 1002.0
20260506214905 15 343 1.6 4.8 0.00 0.00 0.00 91 1001.9
20260506214405 15 347 1.6 9.7 0.00 0.00 0.00 91 1001.9
20260506213905 15 351 1.6 4.8 0.00 0.00 0.00 92 1001.8
20260506213405 15 348 1.6 4.8 0.00 0.00 0.00 92 1001.8
20260506212905 15 342 3.2 9.7 0.00 0.00 0.00 93 1001.7
20260506212405 15 49 1.6 4.8 0.00 0.00 0.00 93 1001.8
20260506211905 15 358 1.6 4.8 0.00 0.00 0.00 94 1001.7
20260506211405 15 327 1.6 8.0 0.00 0.00 0.00 95 1001.7
20260506210905 14 84 1.6 4.8 0.00 0.00 0.00 95 1001.8
20260506210404 14 336 1.6 4.8 0.00 0.00 0.00 95 1001.7
20260506205905 14 324 1.6 3.2 0.00 0.00 0.00 95 1001.7
20260506205405 13 353 1.6 4.8 0.00 0.00 0.00 95 1001.7
20260506204905 13 325 1.6 3.2 0.00 0.00 0.00 94 1001.8
20260506204405 13 345 1.6 4.8 0.00 0.00 0.00 94 1002.1
20260506203905 13 308 1.6 8.0 0.00 0.00 0.00 94 1002.2
20260506203405 13 330 1.6 4.8 0.00 0.00 0.00 94 1002.2
20260506202905 13 322 1.6 4.8 0.00 0.00 0.00 94 1002.3
20260506202405 13 331 1.6 8.0 0.00 0.00 0.00 93 1002.3
20260506201905 13 340 3.2 9.7 0.00 0.00 0.00 93 1002.4
20260506201405 13 308 0.0 4.8 0.00 0.00 0.00 94 1002.4
20260506200904 13 332 3.2 8.0 0.00 0.00 0.00 93 1002.4
20260506200404 14 334 1.6 4.8 0.00 0.00 0.00 93 1002.2
20260506195905 14 294 1.6 11.3 0.00 0.00 0.00 93 1002.4
20260506195405 14 335 3.2 9.7 0.00 0.00 0.00 93 1002.3
20260506194905 14 356 1.6 9.7 0.00 0.00 0.00 92 1002.4
20260506194405 14 341 1.6 9.7 0.00 0.00 0.00 92 1002.3
20260506193404 15 341 1.6 11.3 0.00 0.00 0.00 92 1002.3
20260506192905 15 111 3.2 14.5 0.00 0.00 0.00 91 1002.3
20260506192405 15 183 4.8 11.3 0.00 0.00 0.00 90 1002.5
20260506191905 15 9 3.2 8.0 0.00 0.00 0.00 91 1002.5
20260506191405 15 298 1.6 4.8 0.00 0.00 0.00 92 1002.4
20260506190904 15 330 3.2 11.3 0.00 0.00 0.00 92 1002.6
20260506185905 15 23 3.2 9.7 0.00 0.00 0.00 92 1002.6
20260506185405 15 21 1.6 8.0 0.00 0.00 0.00 92 1002.8
20260506184905 15 321 1.6 8.0 0.00 0.00 0.00 92 1003.2
20260506184405 15 341 1.6 8.0 0.00 0.00 0.00 93 1003.2
20260506183905 15 323 3.2 8.0 0.00 0.00 0.00 93 1003.1
20260506183405 15 90 1.6 8.0 0.00 0.00 0.00 93 1003.3
20260506182905 15 325 3.2 9.7 0.00 0.00 0.00 93 1003.3
20260506181904 14 340 1.6 8.0 0.00 0.00 0.00 94 1003.3
20260506181405 14 2 3.2 4.8 0.00 0.00 0.00 94 1003.4
20260506180905 14 334 1.6 8.0 0.00 0.00 0.00 94 1003.5
20260506180404 14 15 1.6 12.9 0.00 0.00 0.00 94 1003.5
20260506175905 14 355 1.6 9.7 0.00 0.00 0.00 94 1003.5
20260506175405 14 334 1.6 8.0 0.00 0.00 0.00 94 1003.6
20260506174905 15 286 1.6 8.0 0.00 0.00 0.00 93 1003.8
20260506173905 15 354 3.2 4.8 0.00 0.00 0.00 92 1003.9
20260506173405 15 24 1.6 8.0 0.00 0.00 0.00 92 1004.0
20260506172404 15 22 1.6 4.8 0.00 0.00 0.00 90 1004.3
20260506171905 15 322 1.6 4.8 0.00 0.00 0.00 90 1004.4
20260506170904 15 314 1.6 4.8 0.00 0.00 0.00 88 1004.5
20260506170404 15 19 1.6 8.0 0.00 0.00 0.00 87 1004.7
20260506165905 16 316 0.0 4.8 0.00 0.00 0.00 86 1004.6
20260506165404 16 250 3.2 8.0 0.00 0.00 0.00 85 1004.5
20260506164904 16 26 1.6 12.9 0.00 0.00 0.00 85 1004.6
20260506164405 16 342 3.2 4.8 0.00 0.00 0.00 84 1004.6
20260506163905 16 10 1.6 8.0 0.00 0.00 0.00 83 1004.7
20260506163405 16 337 3.2 8.0 0.00 0.00 0.00 82 1004.7
20260506162405 16 279 3.2 9.7 0.00 0.00 0.00 80 1004.8
20260506161904 16 357 3.2 11.3 0.00 0.00 0.00 80 1004.8
20260506161405 16 322 3.2 9.7 0.00 0.00 0.00 80 1004.8
20260506160904 16 352 3.2 11.3 0.00 0.00 0.00 80 1004.8
20260506160405 17 335 3.2 11.3 0.00 0.00 0.00 79 1004.8
20260506155905 17 0 1.6 11.3 0.00 0.00 0.00 79 1004.9
20260506155405 17 321 1.6 8.0 0.00 0.00 0.00 78 1004.9
20260506154904 17 12 3.2 11.3 0.00 0.00 0.00 78 1005.0
20260506154404 17 5 1.6 14.5 0.00 0.00 0.00 78 1005.1
20260506151905 17 7 3.2 9.7 0.00 0.00 0.00 78 1005.3